Location: Estes Par
(40.3770°N, 105.5210°W)
Time: 08:17:53
(UTC-07:00)

Vanguard 1 - Visible Passes

Search period start: 16 January 2018 00:00
Search period end: 26 January 2018 00:00
Orbit: 649 x 3834 km, 34.3° (Epoch: 15 January)

Date Brightness Start Highest point End Pass type
(mag) Time Alt. Az. Time Alt. Az. Time Alt. Az.
16 Jan 13.2 01:26:15 27° E 01:26:15 27° E 01:33:31 10° E visible
16 Jan 12.0 03:38:57 68° SSW 03:40:02 69° S 04:01:33 10° ESE visible
16 Jan 12.9 05:51:41 19° W 06:04:57 52° SSW 06:27:02 10° SE visible
17 Jan 13.0 01:46:03 33° E 01:46:03 33° E 01:55:14 10° E visible
17 Jan 12.0 03:58:46 60° SW 04:01:22 66° S 04:23:00 10° ESE visible
17 Jan 13.1 06:11:29 14° W 06:26:10 45° SSW 06:47:24 10° SSE visible
18 Jan 12.8 02:05:52 39° ESE 02:05:52 39° ESE 02:16:56 10° E visible
18 Jan 12.1 04:18:35 51° WSW 04:22:40 61° SSW 04:44:16 10° ESE visible
18 Jan 13.2 06:31:48 10° W 06:47:19 38° SSW 07:07:20 10° SSE visible
19 Jan 12.6 02:25:43 46° ESE 02:25:43 46° ESE 02:38:36 10° ESE visible
19 Jan 12.3 04:38:25 42° WSW 04:43:58 55° SSW 05:05:17 10° SE visible
19 Jan 13.3 06:53:42 10° W 07:08:25 31° SW 07:26:45 10° SSE visible
20 Jan 12.4 02:45:35 52° SE 02:45:35 52° SE 03:00:10 10° ESE visible
20 Jan 12.4 04:58:17 34° WSW 05:05:13 49° SSW 05:25:59 10° SE visible
21 Jan 13.6 00:52:44 13° E 00:52:44 13° E 00:54:19 10° E visible
21 Jan 12.2 03:05:28 56° SSE 03:05:28 56° SSE 03:21:36 10° ESE visible
21 Jan 12.6 05:18:11 26° WSW 05:26:27 41° SSW 05:46:19 10° SSE visible
22 Jan 13.5 01:12:39 17° E 01:12:39 17° E 01:15:55 10° E visible
22 Jan 12.2 03:25:22 55° S 03:25:22 55° S 03:42:51 10° ESE visible
22 Jan 12.9 05:38:06 20° WSW 05:47:39 34° SSW 06:06:12 10° SSE visible
23 Jan 13.3 01:32:35 22° ESE 01:32:35 22° ESE 01:37:29 10° ESE visible
23 Jan 12.2 03:45:19 51° SSW 03:45:19 51° SSW 04:03:50 10° SE visible
23 Jan 13.1 05:58:02 14° W 06:08:50 27° SW 06:25:28 10° SSE visible
24 Jan 13.1 01:52:33 26° ESE 01:52:33 26° ESE 01:58:59 10° ESE visible
24 Jan 12.3 04:05:16 43° SSW 04:06:14 44° SSW 04:24:30 10° SE visible
24 Jan 13.3 06:19:06 10° WSW 06:30:00 21° SW 06:43:54 10° S visible
25 Jan 13.0 02:12:32 29° SE 02:12:32 29° SE 02:20:20 10° ESE visible
25 Jan 12.5 04:25:16 35° SW 04:27:27 37° SSW 04:44:46 10° SSE visible
25 Jan 13.5 06:43:05 10° WSW 06:51:11 15° SW 07:00:42 10° SSW visible
